Year,Month,Day,Hour,Minute,Value (Times are PST for insolation in W/m^2)
2017,04,23,00,00,0.00
2017,04,23,00,01,0.00
2017,04,23,00,02,0.00
2017,04,23,00,03,0.00
2017,04,23,00,04,0.00
2017,04,23,00,05,0.00
2017,04,23,00,06,0.00
2017,04,23,00,07,0.00
2017,04,23,00,08,0.00
2017,04,23,00,09,0.00
2017,04,23,00,10,0.00
2017,04,23,00,11,0.00
2017,04,23,00,12,0.00
2017,04,23,00,13,0.00
2017,04,23,00,14,0.00
2017,04,23,00,15,0.00
2017,04,23,00,16,0.00
2017,04,23,00,17,0.00
2017,04,23,00,18,0.00
2017,04,23,00,19,0.00
2017,04,23,00,20,0.00
2017,04,23,00,21,0.00
2017,04,23,00,22,0.00
2017,04,23,00,23,0.00
2017,04,23,00,24,0.00
2017,04,23,00,25,0.00
2017,04,23,00,26,0.00
2017,04,23,00,27,0.00
2017,04,23,00,28,0.00
2017,04,23,00,29,0.00
2017,04,23,00,30,0.00
2017,04,23,00,31,0.00
2017,04,23,00,32,0.00
2017,04,23,00,33,0.00
2017,04,23,00,34,0.00
2017,04,23,00,35,0.00
2017,04,23,00,36,0.00
2017,04,23,00,37,0.00
2017,04,23,00,38,0.00
2017,04,23,00,39,0.00
2017,04,23,00,40,0.00
2017,04,23,00,41,0.00
2017,04,23,00,42,0.00
2017,04,23,00,43,0.00
2017,04,23,00,44,0.00
2017,04,23,00,45,0.00
2017,04,23,00,46,0.00
2017,04,23,00,47,0.00
2017,04,23,00,48,0.00
2017,04,23,00,49,0.00
2017,04,23,00,50,0.00
2017,04,23,00,51,0.00
2017,04,23,00,52,0.00
2017,04,23,00,53,0.00
2017,04,23,00,54,0.00
2017,04,23,00,55,0.00
2017,04,23,00,56,0.00
2017,04,23,00,57,0.00
2017,04,23,00,58,0.00
2017,04,23,00,59,0.00
2017,04,23,01,00,0.00
2017,04,23,01,01,0.00
2017,04,23,01,02,0.00
2017,04,23,01,03,0.00
2017,04,23,01,04,0.00
2017,04,23,01,05,0.00
2017,04,23,01,06,0.00
2017,04,23,01,07,0.00
2017,04,23,01,08,0.00
2017,04,23,01,09,0.00
2017,04,23,01,10,0.00
2017,04,23,01,11,0.00
2017,04,23,01,12,0.00
2017,04,23,01,13,0.00
2017,04,23,01,14,0.00
2017,04,23,01,15,0.00
2017,04,23,01,16,0.00
2017,04,23,01,17,0.00
2017,04,23,01,18,0.00
2017,04,23,01,19,0.00
2017,04,23,01,20,0.00
2017,04,23,01,21,0.00
2017,04,23,01,22,0.00
2017,04,23,01,23,0.00
2017,04,23,01,24,0.00
2017,04,23,01,25,0.00
2017,04,23,01,26,0.00
2017,04,23,01,27,0.00
2017,04,23,01,28,0.00
2017,04,23,01,29,0.00
2017,04,23,01,30,0.00
2017,04,23,01,31,0.00
2017,04,23,01,32,0.00
2017,04,23,01,33,0.00
2017,04,23,01,34,0.00
2017,04,23,01,35,0.00
2017,04,23,01,36,0.00
2017,04,23,01,37,0.00
2017,04,23,01,38,0.00
2017,04,23,01,39,0.00
2017,04,23,01,40,0.00
2017,04,23,01,41,0.00
2017,04,23,01,42,0.00
2017,04,23,01,43,0.00
2017,04,23,01,44,0.00
2017,04,23,01,45,0.00
2017,04,23,01,46,0.00
2017,04,23,01,47,0.00
2017,04,23,01,48,0.00
2017,04,23,01,49,0.00
2017,04,23,01,50,0.00
2017,04,23,01,51,0.00
2017,04,23,01,52,0.00
2017,04,23,01,53,0.00
2017,04,23,01,54,0.00
2017,04,23,01,55,0.00
2017,04,23,01,56,0.00
2017,04,23,01,57,0.00
2017,04,23,01,58,0.00
2017,04,23,01,59,0.00
2017,04,23,02,00,0.00
2017,04,23,02,01,0.00
2017,04,23,02,02,0.00
2017,04,23,02,03,0.00
2017,04,23,02,04,0.00
2017,04,23,02,05,0.00
2017,04,23,02,06,0.00
2017,04,23,02,07,0.00
2017,04,23,02,08,0.00
2017,04,23,02,09,0.00
2017,04,23,02,10,0.00
2017,04,23,02,11,0.00
2017,04,23,02,12,0.00
2017,04,23,02,13,0.00
2017,04,23,02,14,0.00
2017,04,23,02,15,0.00
2017,04,23,02,16,0.00
2017,04,23,02,17,0.00
2017,04,23,02,18,0.00
2017,04,23,02,19,0.00
2017,04,23,02,20,0.00
2017,04,23,02,21,0.00
2017,04,23,02,22,0.00
2017,04,23,02,23,0.00
2017,04,23,02,24,0.00
2017,04,23,02,25,0.00
2017,04,23,02,26,0.00
2017,04,23,02,27,0.00
2017,04,23,02,28,0.00
2017,04,23,02,29,0.00
2017,04,23,02,30,0.00
2017,04,23,02,31,0.00
2017,04,23,02,32,0.00
2017,04,23,02,33,0.00
2017,04,23,02,34,0.00
2017,04,23,02,35,0.00
2017,04,23,02,36,0.00
2017,04,23,02,37,0.00
2017,04,23,02,38,0.00
2017,04,23,02,39,0.00
2017,04,23,02,40,0.00
2017,04,23,02,41,0.00
2017,04,23,02,42,0.00
2017,04,23,02,43,0.00
2017,04,23,02,44,0.00
2017,04,23,02,45,0.00
2017,04,23,02,46,0.00
2017,04,23,02,47,0.00
2017,04,23,02,48,0.00
2017,04,23,02,49,0.00
2017,04,23,02,50,0.00
2017,04,23,02,51,0.00
2017,04,23,02,52,0.00
2017,04,23,02,53,0.00
2017,04,23,02,54,0.00
2017,04,23,02,55,0.00
2017,04,23,02,56,0.00
2017,04,23,02,57,0.00
2017,04,23,02,58,0.00
2017,04,23,02,59,0.00
2017,04,23,03,00,0.00
2017,04,23,03,01,0.00
2017,04,23,03,02,0.00
2017,04,23,03,03,0.00
2017,04,23,03,04,0.00
2017,04,23,03,05,0.00
2017,04,23,03,06,0.00
2017,04,23,03,07,0.00
2017,04,23,03,08,0.00
2017,04,23,03,09,0.00
2017,04,23,03,10,0.00
2017,04,23,03,11,0.00
2017,04,23,03,12,0.00
2017,04,23,03,13,0.00
2017,04,23,03,14,0.00
2017,04,23,03,15,0.00
2017,04,23,03,16,0.00
2017,04,23,03,17,0.00
2017,04,23,03,18,0.00
2017,04,23,03,19,0.00
2017,04,23,03,20,0.00
2017,04,23,03,21,0.00
2017,04,23,03,22,0.00
2017,04,23,03,23,0.00
2017,04,23,03,24,0.00
2017,04,23,03,25,0.00
2017,04,23,03,26,0.00
2017,04,23,03,27,0.00
2017,04,23,03,28,0.00
2017,04,23,03,29,0.00
2017,04,23,03,30,0.00
2017,04,23,03,31,0.00
2017,04,23,03,32,0.00
2017,04,23,03,33,0.00
2017,04,23,03,34,0.00
2017,04,23,03,35,0.00
2017,04,23,03,36,0.00
2017,04,23,03,37,0.00
2017,04,23,03,38,0.00
2017,04,23,03,39,0.00
2017,04,23,03,40,0.00
2017,04,23,03,41,0.00
2017,04,23,03,42,0.00
2017,04,23,03,43,0.00
2017,04,23,03,44,0.00
2017,04,23,03,45,0.00
2017,04,23,03,46,0.00
2017,04,23,03,47,0.00
2017,04,23,03,48,0.00
2017,04,23,03,49,0.00
2017,04,23,03,50,0.00
2017,04,23,03,51,0.00
2017,04,23,03,52,0.00
2017,04,23,03,53,0.00
2017,04,23,03,54,0.00
2017,04,23,03,55,0.00
2017,04,23,03,56,0.00
2017,04,23,03,57,0.00
2017,04,23,03,58,0.00
2017,04,23,03,59,0.00
2017,04,23,04,00,0.00
2017,04,23,04,01,0.00
2017,04,23,04,02,0.00
2017,04,23,04,03,0.00
2017,04,23,04,04,0.00
2017,04,23,04,05,0.00
2017,04,23,04,06,0.00
2017,04,23,04,07,0.00
2017,04,23,04,08,0.00
2017,04,23,04,09,0.00
2017,04,23,04,10,0.00
2017,04,23,04,11,0.00
2017,04,23,04,12,0.00
2017,04,23,04,13,0.00
2017,04,23,04,14,0.00
2017,04,23,04,15,0.00
2017,04,23,04,16,0.00
2017,04,23,04,17,0.00
2017,04,23,04,18,0.00
2017,04,23,04,19,0.00
2017,04,23,04,20,0.00
2017,04,23,04,21,0.00
2017,04,23,04,22,0.00
2017,04,23,04,23,0.00
2017,04,23,04,24,0.00
2017,04,23,04,25,0.00
2017,04,23,04,26,0.00
2017,04,23,04,27,0.00
2017,04,23,04,28,0.00
2017,04,23,04,29,0.00
2017,04,23,04,30,0.00
2017,04,23,04,31,0.00
2017,04,23,04,32,0.00
2017,04,23,04,33,0.00
2017,04,23,04,34,0.00
2017,04,23,04,35,0.00
2017,04,23,04,36,0.00
2017,04,23,04,37,0.00
2017,04,23,04,38,0.00
2017,04,23,04,39,0.00
2017,04,23,04,40,0.00
2017,04,23,04,41,0.00
2017,04,23,04,42,0.00
2017,04,23,04,43,0.00
2017,04,23,04,44,0.00
2017,04,23,04,45,0.00
2017,04,23,04,46,0.00
2017,04,23,04,47,0.00
2017,04,23,04,48,0.00
2017,04,23,04,49,0.00
2017,04,23,04,50,0.00
2017,04,23,04,51,0.00
2017,04,23,04,52,0.00
2017,04,23,04,53,0.00
2017,04,23,04,54,0.00
2017,04,23,04,55,0.00
2017,04,23,04,56,0.00
2017,04,23,04,57,0.00
2017,04,23,04,58,0.00
2017,04,23,04,59,0.00
2017,04,23,05,00,0.00
2017,04,23,05,01,0.00
2017,04,23,05,02,0.00
2017,04,23,05,03,0.00
2017,04,23,05,04,0.00
2017,04,23,05,05,0.00
2017,04,23,05,06,0.00
2017,04,23,05,07,0.00
2017,04,23,05,08,0.00
2017,04,23,05,09,0.00
2017,04,23,05,10,0.00
2017,04,23,05,11,0.00
2017,04,23,05,12,0.00
2017,04,23,05,13,0.00
2017,04,23,05,14,0.00
2017,04,23,05,15,0.00
2017,04,23,05,16,0.00
2017,04,23,05,17,0.00
2017,04,23,05,18,0.00
2017,04,23,05,19,0.00
2017,04,23,05,20,0.00
2017,04,23,05,21,0.00
2017,04,23,05,22,0.00
2017,04,23,05,23,0.00
2017,04,23,05,24,0.00
2017,04,23,05,25,0.00
2017,04,23,05,26,0.00
2017,04,23,05,27,0.00
2017,04,23,05,28,0.00
2017,04,23,05,29,0.00
2017,04,23,05,30,0.00
2017,04,23,05,31,0.00
2017,04,23,05,32,0.00
2017,04,23,05,33,0.00
2017,04,23,05,34,0.00
2017,04,23,05,35,0.00
2017,04,23,05,36,0.00
2017,04,23,05,37,0.00
2017,04,23,05,38,0.00
2017,04,23,05,39,0.00
2017,04,23,05,40,0.00
2017,04,23,05,41,0.00
2017,04,23,05,42,0.00
2017,04,23,05,43,0.00
2017,04,23,05,44,0.00
2017,04,23,05,45,0.00
2017,04,23,05,46,0.00
2017,04,23,05,47,0.00
2017,04,23,05,48,0.00
2017,04,23,05,49,0.00
2017,04,23,05,50,0.00
2017,04,23,05,51,0.00
2017,04,23,05,52,0.00
2017,04,23,05,53,0.00
2017,04,23,05,54,0.00
2017,04,23,05,55,0.00
2017,04,23,05,56,0.00
2017,04,23,05,57,0.00
2017,04,23,05,58,0.00
2017,04,23,05,59,0.00
2017,04,23,06,00,0.00
2017,04,23,06,01,0.00
2017,04,23,06,02,0.00
2017,04,23,06,03,0.00
2017,04,23,06,04,0.00
2017,04,23,06,05,0.00
2017,04,23,06,06,0.00
2017,04,23,06,07,0.00
2017,04,23,06,08,0.00
2017,04,23,06,09,0.00
2017,04,23,06,10,0.00
2017,04,23,06,11,0.00
2017,04,23,06,12,0.00
2017,04,23,06,13,0.00
2017,04,23,06,14,0.00
2017,04,23,06,15,0.00
2017,04,23,06,16,0.00
2017,04,23,06,17,0.00
2017,04,23,06,18,0.00
2017,04,23,06,19,0.00
2017,04,23,06,20,0.00
2017,04,23,06,21,0.00
2017,04,23,06,22,0.00
2017,04,23,06,23,2.80
2017,04,23,06,24,5.00
2017,04,23,06,25,5.00
2017,04,23,06,26,5.00
2017,04,23,06,27,5.40
2017,04,23,06,28,7.00
2017,04,23,06,29,7.00
2017,04,23,06,30,7.00
2017,04,23,06,31,8.30
2017,04,23,06,32,9.00
2017,04,23,06,33,9.10
2017,04,23,06,34,11.00
2017,04,23,06,35,11.30
2017,04,23,06,36,12.00
2017,04,23,06,37,12.00
2017,04,23,06,38,13.30
2017,04,23,06,39,14.00
2017,04,23,06,40,15.90
2017,04,23,06,41,16.30
2017,04,23,06,42,18.00
2017,04,23,06,43,18.40
2017,04,23,06,44,19.00
2017,04,23,06,45,20.30
2017,04,23,06,46,22.60
2017,04,23,06,47,23.10
2017,04,23,06,48,25.00
2017,04,23,06,49,25.30
2017,04,23,06,50,26.00
2017,04,23,06,51,27.00
2017,04,23,06,52,28.00
2017,04,23,06,53,29.60
2017,04,23,06,54,30.00
2017,04,23,06,55,30.30
2017,04,23,06,56,32.00
2017,04,23,06,57,32.00
2017,04,23,06,58,32.60
2017,04,23,06,59,33.00
2017,04,23,07,00,33.00
2017,04,23,07,01,33.00
2017,04,23,07,02,33.40
2017,04,23,07,03,35.00
2017,04,23,07,04,35.00
2017,04,23,07,05,35.00
2017,04,23,07,06,36.30
2017,04,23,07,07,37.00
2017,04,23,07,08,38.90
2017,04,23,07,09,40.40
2017,04,23,07,10,42.60
2017,04,23,07,11,44.00
2017,04,23,07,12,45.10
2017,04,23,07,13,46.70
2017,04,23,07,14,48.60
2017,04,23,07,15,51.00
2017,04,23,07,16,53.00
2017,04,23,07,17,53.30
2017,04,23,07,18,54.90
2017,04,23,07,19,56.00
2017,04,23,07,20,57.30
2017,04,23,07,21,58.00
2017,04,23,07,22,59.90
2017,04,23,07,23,60.00
2017,04,23,07,24,60.60
2017,04,23,07,25,62.00
2017,04,23,07,26,62.60
2017,04,23,07,27,63.00
2017,04,23,07,28,64.60
2017,04,23,07,29,65.10
2017,04,23,07,30,67.00
2017,04,23,07,31,67.60
2017,04,23,07,32,69.00
2017,04,23,07,33,69.60
2017,04,23,07,34,70.00
2017,04,23,07,35,71.60
2017,04,23,07,36,72.10
2017,04,23,07,37,74.00
2017,04,23,07,38,74.60
2017,04,23,07,39,76.00
2017,04,23,07,40,76.50
2017,04,23,07,41,77.00
2017,04,23,07,42,78.60
2017,04,23,07,43,80.90
2017,04,23,07,44,81.30
2017,04,23,07,45,83.30
2017,04,23,07,46,84.00
2017,04,23,07,47,84.00
2017,04,23,07,48,84.00
2017,04,23,07,49,85.60
2017,04,23,07,50,86.00
2017,04,23,07,51,86.00
2017,04,23,07,52,86.00
2017,04,23,07,53,86.00
2017,04,23,07,54,87.10
2017,04,23,07,55,88.00
2017,04,23,07,56,88.00
2017,04,23,07,57,89.90
2017,04,23,07,58,91.30
2017,04,23,07,59,94.20
2017,04,23,08,00,98.20
2017,04,23,08,01,102.80
2017,04,23,08,02,107.70
2017,04,23,08,03,110.60
2017,04,23,08,04,113.90
2017,04,23,08,05,116.30
2017,04,23,08,06,118.60
2017,04,23,08,07,121.20
2017,04,23,08,08,124.00
2017,04,23,08,09,126.30
2017,04,23,08,10,129.30
2017,04,23,08,11,132.00
2017,04,23,08,12,135.70
2017,04,23,08,13,139.60
2017,04,23,08,14,142.30
2017,04,23,08,15,145.10
2017,04,23,08,16,147.30
2017,04,23,08,17,150.40
2017,04,23,08,18,153.00
2017,04,23,08,19,156.40
2017,04,23,08,20,159.20
2017,04,23,08,21,164.20
2017,04,23,08,22,169.80
2017,04,23,08,23,174.70
2017,04,23,08,24,179.90
2017,04,23,08,25,184.80
2017,04,23,08,26,188.60
2017,04,23,08,27,193.50
2017,04,23,08,28,198.20
2017,04,23,08,29,203.30
2017,04,23,08,30,208.00
2017,04,23,08,31,210.60
2017,04,23,08,32,211.10
2017,04,23,08,33,213.00
2017,04,23,08,34,213.90
2017,04,23,08,35,218.90
2017,04,23,08,36,226.30
2017,04,23,08,37,231.00
2017,04,23,08,38,256.90
2017,04,23,08,39,273.70
2017,04,23,08,40,290.50
2017,04,23,08,41,317.30
2017,04,23,08,42,295.00
2017,04,23,08,43,265.50
2017,04,23,08,44,248.30
2017,04,23,08,45,239.00
2017,04,23,08,46,246.60
2017,04,23,08,47,285.10
2017,04,23,08,48,297.70
2017,04,23,08,49,280.40
2017,04,23,08,50,342.20
2017,04,23,08,51,343.70
2017,04,23,08,52,283.10
2017,04,23,08,53,222.10
2017,04,23,08,54,221.60
2017,04,23,08,55,252.00
2017,04,23,08,56,321.70
2017,04,23,08,57,314.40
2017,04,23,08,58,302.00
2017,04,23,08,59,387.60
2017,04,23,09,00,393.80
2017,04,23,09,01,381.00
2017,04,23,09,02,309.10
2017,04,23,09,03,305.10
2017,04,23,09,04,362.20
2017,04,23,09,05,355.50
2017,04,23,09,06,335.60
2017,04,23,09,07,353.90
2017,04,23,09,08,353.30
2017,04,23,09,09,430.20
2017,04,23,09,10,440.50
2017,04,23,09,11,434.00
2017,04,23,09,12,455.30
2017,04,23,09,13,459.00
2017,04,23,09,14,461.90
2017,04,23,09,15,468.20
2017,04,23,09,16,469.00
2017,04,23,09,17,467.70
2017,04,23,09,18,471.60
2017,04,23,09,19,477.30
2017,04,23,09,20,483.70
2017,04,23,09,21,483.10
2017,04,23,09,22,481.50
2017,04,23,09,23,473.20
2017,04,23,09,24,467.80
2017,04,23,09,25,464.90
2017,04,23,09,26,464.00
2017,04,23,09,27,475.40
2017,04,23,09,28,480.10
2017,04,23,09,29,488.30
2017,04,23,09,30,494.00
2017,04,23,09,31,496.20
2017,04,23,09,32,506.20
2017,04,23,09,33,515.50
2017,04,23,09,34,522.70
2017,04,23,09,35,530.90
2017,04,23,09,36,536.00
2017,04,23,09,37,537.20
2017,04,23,09,38,539.20
2017,04,23,09,39,536.90
2017,04,23,09,40,532.70
2017,04,23,09,41,541.90
2017,04,23,09,42,556.20
2017,04,23,09,43,556.80
2017,04,23,09,44,553.80
2017,04,23,09,45,566.90
2017,04,23,09,46,550.80
2017,04,23,09,47,536.10
2017,04,23,09,48,548.50
2017,04,23,09,49,545.80
2017,04,23,09,50,546.30
2017,04,23,09,51,557.60
2017,04,23,09,52,566.00
2017,04,23,09,53,564.30
2017,04,23,09,54,567.70
2017,04,23,09,55,572.30
2017,04,23,09,56,583.00
2017,04,23,09,57,579.70
2017,04,23,09,58,587.60
2017,04,23,09,59,587.00
2017,04,23,10,00,591.80
2017,04,23,10,01,598.70
2017,04,23,10,02,598.20
2017,04,23,10,03,596.00
2017,04,23,10,04,591.10
2017,04,23,10,05,584.90
2017,04,23,10,06,568.40
2017,04,23,10,07,554.50
2017,04,23,10,08,570.30
2017,04,23,10,09,579.60
2017,04,23,10,10,570.30
2017,04,23,10,11,561.60
2017,04,23,10,12,575.70
2017,04,23,10,13,580.20
2017,04,23,10,14,582.80
2017,04,23,10,15,593.00
2017,04,23,10,16,609.90
2017,04,23,10,17,612.10
2017,04,23,10,18,611.50
2017,04,23,10,19,607.10
2017,04,23,10,20,609.30
2017,04,23,10,21,592.00
2017,04,23,10,22,562.70
2017,04,23,10,23,575.20
2017,04,23,10,24,607.30
2017,04,23,10,25,594.60
2017,04,23,10,26,577.70
2017,04,23,10,27,595.80
2017,04,23,10,28,611.30
2017,04,23,10,29,642.70
2017,04,23,10,30,673.00
2017,04,23,10,31,651.10
2017,04,23,10,32,649.00
2017,04,23,10,33,649.00
2017,04,23,10,34,649.00
2017,04,23,10,35,582.30
2017,04,23,10,36,529.00
2017,04,23,10,37,639.00
2017,04,23,10,38,663.20
2017,04,23,10,39,641.40
2017,04,23,10,40,637.40
2017,04,23,10,41,635.60
2017,04,23,10,42,635.00
2017,04,23,10,43,635.00
2017,04,23,10,44,434.70
2017,04,23,10,45,479.60
2017,04,23,10,46,488.50
2017,04,23,10,47,523.70
2017,04,23,10,48,593.50
2017,04,23,10,49,632.40
2017,04,23,10,50,651.30
2017,04,23,10,51,644.20
2017,04,23,10,52,660.50
2017,04,23,10,53,683.40
2017,04,23,10,54,677.00
2017,04,23,10,55,679.40
2017,04,23,10,56,679.10
2017,04,23,10,57,648.00
2017,04,23,10,58,639.60
2017,04,23,10,59,694.20
2017,04,23,11,00,666.10
2017,04,23,11,01,680.00
2017,04,23,11,02,653.50
2017,04,23,11,03,615.00
2017,04,23,11,04,587.00
2017,04,23,11,05,573.00
2017,04,23,11,06,594.50
2017,04,23,11,07,603.00
2017,04,23,11,08,603.00
2017,04,23,11,09,630.10
2017,04,23,11,10,693.40
2017,04,23,11,11,681.10
2017,04,23,11,12,666.00
2017,04,23,11,13,756.90
2017,04,23,11,14,782.50
2017,04,23,11,15,699.80
2017,04,23,11,16,647.00
2017,04,23,11,17,647.00
2017,04,23,11,18,746.90
2017,04,23,11,19,789.00
2017,04,23,11,20,701.00
2017,04,23,11,21,711.60
2017,04,23,11,22,788.70
2017,04,23,11,23,777.80
2017,04,23,11,24,728.60
2017,04,23,11,25,723.50
2017,04,23,11,26,765.30
2017,04,23,11,27,771.00
2017,04,23,11,28,704.60
2017,04,23,11,29,619.90
2017,04,23,11,30,636.30
2017,04,23,11,31,670.50
2017,04,23,11,32,703.70
2017,04,23,11,33,740.30
2017,04,23,11,34,708.10
2017,04,23,11,35,654.40
2017,04,23,11,36,698.40
2017,04,23,11,37,722.80
2017,04,23,11,38,728.80
2017,04,23,11,39,762.70
2017,04,23,11,40,807.70
2017,04,23,11,41,823.30
2017,04,23,11,42,840.70
2017,04,23,11,43,841.50
2017,04,23,11,44,845.80
2017,04,23,11,45,828.20
2017,04,23,11,46,834.30
2017,04,23,11,47,849.70
2017,04,23,11,48,853.10
2017,04,23,11,49,849.50
2017,04,23,11,50,819.50
2017,04,23,11,51,855.90
2017,04,23,11,52,935.70
2017,04,23,11,53,929.50
2017,04,23,11,54,919.00
2017,04,23,11,55,827.20
2017,04,23,11,56,793.90
2017,04,23,11,57,824.50
2017,04,23,11,58,867.70
2017,04,23,11,59,853.40
2017,04,23,12,00,847.80
2017,04,23,12,01,832.70
2017,04,23,12,02,826.00
2017,04,23,12,03,818.60
2017,04,23,12,04,817.60
2017,04,23,12,05,821.00
2017,04,23,12,06,827.90
2017,04,23,12,07,827.50
2017,04,23,12,08,819.00
2017,04,23,12,09,795.00
2017,04,23,12,10,802.30
2017,04,23,12,11,826.80
2017,04,23,12,12,840.00
2017,04,23,12,13,842.20
2017,04,23,12,14,839.80
2017,04,23,12,15,831.80
2017,04,23,12,16,814.70
2017,04,23,12,17,800.60
2017,04,23,12,18,805.80
2017,04,23,12,19,825.00
2017,04,23,12,20,840.10
2017,04,23,12,21,834.20
2017,04,23,12,22,833.00
2017,04,23,12,23,821.20
2017,04,23,12,24,799.10
2017,04,23,12,25,778.90
2017,04,23,12,26,776.90
2017,04,23,12,27,795.70
2017,04,23,12,28,793.70
2017,04,23,12,29,794.50
2017,04,23,12,30,789.80
2017,04,23,12,31,791.70
2017,04,23,12,32,766.20
2017,04,23,12,33,750.20
2017,04,23,12,34,756.80
2017,04,23,12,35,764.40
2017,04,23,12,36,768.90
2017,04,23,12,37,792.70
2017,04,23,12,38,812.80
2017,04,23,12,39,820.30
2017,04,23,12,40,835.70
2017,04,23,12,41,849.20
2017,04,23,12,42,862.10
2017,04,23,12,43,862.30
2017,04,23,12,44,864.60
2017,04,23,12,45,885.20
2017,04,23,12,46,876.30
2017,04,23,12,47,865.00
2017,04,23,12,48,756.70
2017,04,23,12,49,731.60
2017,04,23,12,50,766.00
2017,04,23,12,51,793.70
2017,04,23,12,52,852.50
2017,04,23,12,53,856.90
2017,04,23,12,54,841.30
2017,04,23,12,55,835.80
2017,04,23,12,56,850.50
2017,04,23,12,57,852.10
2017,04,23,12,58,845.90
2017,04,23,12,59,841.40
2017,04,23,13,00,851.10
2017,04,23,13,01,847.40
2017,04,23,13,02,828.30
2017,04,23,13,03,809.20
2017,04,23,13,04,810.00
2017,04,23,13,05,809.10
2017,04,23,13,06,792.50
2017,04,23,13,07,770.90
2017,04,23,13,08,748.90
2017,04,23,13,09,735.70
2017,04,23,13,10,746.40
2017,04,23,13,11,767.20
2017,04,23,13,12,810.40
2017,04,23,13,13,801.10
2017,04,23,13,14,810.00
2017,04,23,13,15,822.80
2017,04,23,13,16,822.20
2017,04,23,13,17,790.00
2017,04,23,13,18,765.60
2017,04,23,13,19,729.90
2017,04,23,13,20,713.30
2017,04,23,13,21,754.70
2017,04,23,13,22,780.00
2017,04,23,13,23,811.70
2017,04,23,13,24,837.70
2017,04,23,13,25,838.00
2017,04,23,13,26,850.20
2017,04,23,13,27,856.40
2017,04,23,13,28,854.30
2017,04,23,13,29,846.00
2017,04,23,13,30,846.00
2017,04,23,13,31,846.00
2017,04,23,13,32,775.70
2017,04,23,13,33,789.20
2017,04,23,13,34,844.00
2017,04,23,13,35,800.00
2017,04,23,13,36,727.70
2017,04,23,13,37,629.00
2017,04,23,13,38,749.00
2017,04,23,13,39,882.50
2017,04,23,13,40,922.80
2017,04,23,13,41,1000.30
2017,04,23,13,42,944.40
2017,04,23,13,43,925.00
2017,04,23,13,44,925.00
2017,04,23,13,45,925.00
2017,04,23,13,46,925.00
2017,04,23,13,47,623.20
2017,04,23,13,48,489.70
2017,04,23,13,49,418.70
2017,04,23,13,50,391.00
2017,04,23,13,51,374.30
2017,04,23,13,52,365.70
2017,04,23,13,53,365.60
2017,04,23,13,54,362.70
2017,04,23,13,55,375.20
2017,04,23,13,56,387.80
2017,04,23,13,57,400.50
2017,04,23,13,58,421.70
2017,04,23,13,59,465.00
2017,04,23,14,00,482.00
2017,04,23,14,01,660.70
2017,04,23,14,02,636.90
2017,04,23,14,03,456.10
2017,04,23,14,04,422.90
2017,04,23,14,05,403.00
2017,04,23,14,06,379.30
2017,04,23,14,07,346.00
2017,04,23,14,08,346.00
2017,04,23,14,09,363.70
2017,04,23,14,10,371.00
2017,04,23,14,11,397.50
2017,04,23,14,12,429.30
2017,04,23,14,13,434.40
2017,04,23,14,14,480.20
2017,04,23,14,15,492.00
2017,04,23,14,16,497.90
2017,04,23,14,17,518.50
2017,04,23,14,18,509.70
2017,04,23,14,19,507.20
2017,04,23,14,20,501.00
2017,04,23,14,21,501.00
2017,04,23,14,22,601.70
2017,04,23,14,23,576.00
2017,04,23,14,24,589.00
2017,04,23,14,25,474.30
2017,04,23,14,26,294.70
2017,04,23,14,27,268.70
2017,04,23,14,28,303.80
2017,04,23,14,29,341.30
2017,04,23,14,30,308.60
2017,04,23,14,31,337.10
2017,04,23,14,32,399.00
2017,04,23,14,33,399.00
2017,04,23,14,34,572.30
2017,04,23,14,35,659.00
2017,04,23,14,36,652.40
2017,04,23,14,37,482.20
2017,04,23,14,38,461.50
2017,04,23,14,39,425.20
2017,04,23,14,40,443.00
2017,04,23,14,41,571.80
2017,04,23,14,42,579.20
2017,04,23,14,43,596.60
2017,04,23,14,44,592.50
2017,04,23,14,45,582.60
2017,04,23,14,46,607.80
2017,04,23,14,47,649.60
2017,04,23,14,48,668.70
2017,04,23,14,49,660.70
2017,04,23,14,50,669.90
2017,04,23,14,51,665.60
2017,04,23,14,52,674.70
2017,04,23,14,53,699.20
2017,04,23,14,54,698.00
2017,04,23,14,55,550.00
2017,04,23,14,56,476.00
2017,04,23,14,57,477.30
2017,04,23,14,58,500.60
2017,04,23,14,59,451.00
2017,04,23,15,00,470.90
2017,04,23,15,01,524.00
2017,04,23,15,02,570.70
2017,04,23,15,03,594.00
2017,04,23,15,04,600.30
2017,04,23,15,05,752.60
2017,04,23,15,06,674.60
2017,04,23,15,07,586.10
2017,04,23,15,08,550.60
2017,04,23,15,09,545.70
2017,04,23,15,10,515.70
2017,04,23,15,11,548.30
2017,04,23,15,12,588.40
2017,04,23,15,13,533.00
2017,04,23,15,14,610.30
2017,04,23,15,15,699.20
2017,04,23,15,16,631.10
2017,04,23,15,17,573.50
2017,04,23,15,18,550.20
2017,04,23,15,19,528.40
2017,04,23,15,20,562.30
2017,04,23,15,21,596.30
2017,04,23,15,22,647.00
2017,04,23,15,23,671.00
2017,04,23,15,24,618.50
2017,04,23,15,25,614.30
2017,04,23,15,26,624.20
2017,04,23,15,27,666.70
2017,04,23,15,28,635.90
2017,04,23,15,29,588.10
2017,04,23,15,30,565.90
2017,04,23,15,31,592.20
2017,04,23,15,32,645.00
2017,04,23,15,33,578.20
2017,04,23,15,34,527.60
2017,04,23,15,35,546.70
2017,04,23,15,36,538.90
2017,04,23,15,37,533.30
2017,04,23,15,38,538.70
2017,04,23,15,39,562.70
2017,04,23,15,40,549.10
2017,04,23,15,41,560.90
2017,04,23,15,42,540.40
2017,04,23,15,43,490.00
2017,04,23,15,44,580.70
2017,04,23,15,45,597.70
2017,04,23,15,46,674.30
2017,04,23,15,47,728.00
2017,04,23,15,48,674.40
2017,04,23,15,49,547.00
2017,04,23,15,50,547.00
2017,04,23,15,51,547.00
2017,04,23,15,52,454.10
2017,04,23,15,53,383.60
2017,04,23,15,54,375.20
2017,04,23,15,55,388.60
2017,04,23,15,56,389.90
2017,04,23,15,57,411.60
2017,04,23,15,58,412.80
2017,04,23,15,59,379.60
2017,04,23,16,00,371.70
2017,04,23,16,01,391.10
2017,04,23,16,02,404.20
2017,04,23,16,03,346.90
2017,04,23,16,04,338.00
2017,04,23,16,05,445.00
2017,04,23,16,06,480.30
2017,04,23,16,07,478.30
2017,04,23,16,08,429.90
2017,04,23,16,09,392.70
2017,04,23,16,10,391.40
2017,04,23,16,11,372.70
2017,04,23,16,12,355.30
2017,04,23,16,13,344.30
2017,04,23,16,14,361.70
2017,04,23,16,15,336.50
2017,04,23,16,16,323.10
2017,04,23,16,17,383.00
2017,04,23,16,18,428.10
2017,04,23,16,19,389.70
2017,04,23,16,20,366.40
2017,04,23,16,21,355.20
2017,04,23,16,22,339.80
2017,04,23,16,23,315.50
2017,04,23,16,24,343.70
2017,04,23,16,25,359.80
2017,04,23,16,26,327.30
2017,04,23,16,27,284.90
2017,04,23,16,28,307.90
2017,04,23,16,29,286.80
2017,04,23,16,30,254.40
2017,04,23,16,31,293.20
2017,04,23,16,32,336.30
2017,04,23,16,33,288.30
2017,04,23,16,34,264.90
2017,04,23,16,35,310.80
2017,04,23,16,36,350.40
2017,04,23,16,37,341.70
2017,04,23,16,38,348.00
2017,04,23,16,39,354.10
2017,04,23,16,40,364.60
2017,04,23,16,41,374.30
2017,04,23,16,42,379.00
2017,04,23,16,43,425.60
2017,04,23,16,44,348.70
2017,04,23,16,45,337.30
2017,04,23,16,46,330.30
2017,04,23,16,47,326.20
2017,04,23,16,48,319.30
2017,04,23,16,49,309.10
2017,04,23,16,50,300.10
2017,04,23,16,51,294.10
2017,04,23,16,52,292.00
2017,04,23,16,53,289.80
2017,04,23,16,54,285.90
2017,04,23,16,55,276.10
2017,04,23,16,56,262.40
2017,04,23,16,57,245.40
2017,04,23,16,58,232.50
2017,04,23,16,59,226.60
2017,04,23,17,00,223.00
2017,04,23,17,01,227.00
2017,04,23,17,02,236.80
2017,04,23,17,03,250.30
2017,04,23,17,04,254.10
2017,04,23,17,05,247.90
2017,04,23,17,06,237.10
2017,04,23,17,07,226.80
2017,04,23,17,08,219.00
2017,04,23,17,09,206.20
2017,04,23,17,10,192.70
2017,04,23,17,11,190.90
2017,04,23,17,12,197.10